�N����,����,�~����,�C��,���x,�C��,����,���ϕ���,�ő�u�ԕ���,�ő厞����,���˗�,�I�_���x,�n�����x,�ő啗���N��,DTYPE
"16/11/14","00:10",0.0,12.1,93.3,1017.8,302.3,1.0,1.4,320.2,0.00,11.1,14.5,"00:00:48",1
"16/11/14","00:20",0.0,12.1,93.6,1017.8,285.8,0.8,1.2,266.5,0.00,11.1,14.5,"00:11:22",1
"16/11/14","00:30",0.0,12.2,93.5,1018.0,286.9,0.8,1.3,308.8,0.00,11.2,14.5,"00:27:32",1
"16/11/14","00:40",0.0,12.3,93.2,1018.0,305.9,0.6,1.4,320.8,0.00,11.3,14.3,"00:31:28",1
"16/11/14","00:50",0.0,12.3,93.0,1017.8,320.9,1.1,1.6,328.5,0.00,11.2,14.3,"00:46:34",1
"16/11/14","01:00",0.0,12.3,93.1,1018.0,336.4,1.0,1.6,344.3,0.00,11.3,14.2,"00:53:20",1
"16/11/14","01:10",0.0,12.2,92.7,1017.5,299.5,1.1,1.8,325.0,0.00,11.1,14.2,"01:04:16",1
"16/11/14","01:20",0.0,11.9,93.0,1017.5,276.5,0.7,1.0,280.4,0.00,10.8,14.2,"01:10:40",1
"16/11/14","01:30",0.0,11.8,93.5,1017.5,302.2,0.7,1.7,331.3,0.00,10.8,14.1,"01:20:02",1
"16/11/14","01:40",0.0,11.7,93.9,1017.5,327.0,1.6,2.1,334.2,0.00,10.8,14.2,"01:32:38",1
"16/11/14","01:50",0.0,11.7,94.2,1017.8,298.7,1.0,1.2,306.3,0.00,10.8,14.4,"01:45:54",1
"16/11/14","02:00",0.0,11.6,94.4,1017.5,286.2,0.6,0.9,297.0,0.00,10.8,14.3,"01:50:08",1
"16/11/14","02:10",0.0,11.6,94.7,1017.5,271.9,0.7,1.1,259.4,0.00,10.8,14.2,"02:04:20",1
"16/11/14","02:20",0.0,11.7,94.6,1017.8,317.2,1.2,1.8,331.4,0.00,10.9,14.4,"02:19:56",1
"16/11/14","02:30",0.0,11.7,94.6,1017.5,311.6,1.3,1.8,325.1,0.00,10.9,14.2,"02:20:28",1
"16/11/14","02:40",0.0,11.6,94.7,1017.1,296.5,0.7,1.2,317.6,0.00,10.8,14.1,"02:34:00",1
"16/11/14","02:50",0.0,11.5,94.9,1017.1,304.5,1.0,1.6,321.7,0.00,10.8,14.4,"02:42:40",1
"16/11/14","03:00",0.0,11.5,95.1,1016.6,298.9,1.0,1.4,319.5,0.00,10.8,14.0,"02:58:00",1
"16/11/14","03:10",0.0,11.4,95.3,1015.9,301.4,1.0,1.4,315.3,0.00,10.7,14.0,"03:00:24",1
"16/11/14","03:20",0.0,11.3,95.6,1015.6,283.8,0.6,1.1,276.8,0.00,10.7,14.1,"03:10:16",1
"16/11/14","03:30",0.0,11.3,96.0,1015.9,321.0,1.3,1.6,322.5,0.00,10.7,14.0,"03:22:14",1
"16/11/14","03:40",0.0,11.4,95.9,1015.6,322.2,1.3,1.8,333.1,0.00,10.8,14.1,"03:33:12",1
"16/11/14","03:50",0.0,11.4,95.9,1016.1,298.2,0.8,1.3,319.4,0.00,10.8,14.1,"03:49:04",1
"16/11/14","04:00",0.0,11.5,96.0,1016.1,327.7,1.3,1.9,338.7,0.00,10.9,13.9,"03:55:36",1
"16/11/14","04:10",0.0,11.6,95.9,1016.6,282.0,1.1,1.2,318.2,0.00,11.0,14.2,"04:00:08",1
"16/11/14","04:20",0.0,11.8,95.6,1016.4,308.0,1.1,1.6,328.5,0.00,11.2,14.0,"04:17:30",1
"16/11/14","04:30",0.0,11.8,95.2,1016.4,307.2,0.8,1.6,322.5,0.00,11.1,14.0,"04:22:32",1
"16/11/14","04:40",0.0,11.8,95.1,1015.6,280.8,0.8,1.0,293.3,0.00,11.1,14.0,"04:31:36",1
"16/11/14","04:50",0.0,11.6,95.1,1015.6,277.0,0.7,1.0,284.7,0.00,10.9,14.0,"04:43:08",1
"16/11/14","05:00",0.0,11.5,95.2,1015.9,292.3,0.8,1.3,311.6,0.00,10.8,14.2,"04:56:58",1
"16/11/14","05:10",0.0,11.5,95.4,1015.9,320.8,1.5,1.9,340.6,0.00,10.8,14.0,"05:05:16",1
"16/11/14","05:20",0.0,11.5,95.5,1015.6,295.6,1.0,1.6,316.0,0.00,10.8,13.8,"05:10:18",1
"16/11/14","05:30",0.0,11.4,95.6,1015.4,313.0,0.8,1.4,323.6,0.00,10.8,13.9,"05:21:30",1
"16/11/14","05:40",0.0,11.3,95.7,1015.6,284.3,1.0,1.3,302.0,0.00,10.7,13.9,"05:35:46",1
"16/11/14","05:50",0.0,11.3,96.0,1015.9,288.9,0.8,1.3,256.9,0.00,10.7,14.0,"05:49:38",1
"16/11/14","06:00",0.0,11.3,96.0,1015.9,291.6,1.0,1.4,312.7,0.00,10.7,13.9,"05:58:24",1
"16/11/14","06:10",0.0,11.4,95.9,1015.6,317.6,1.3,1.7,331.5,0.00,10.8,13.9,"06:06:00",1
"16/11/14","06:20",0.0,11.3,95.8,1015.9,291.7,1.2,1.8,316.7,0.00,10.7,13.9,"06:11:48",1
"16/11/14","06:30",0.0,11.4,95.8,1015.6,284.5,0.8,1.1,260.0,0.00,10.8,13.9,"06:21:28",1
"16/11/14","06:40",0.0,11.4,95.5,1015.6,300.7,1.0,1.4,322.5,0.00,10.7,13.8,"06:31:44",1
"16/11/14","06:50",0.0,11.3,95.5,1015.6,291.5,0.5,1.0,309.2,0.00,10.6,13.8,"06:45:00",1
"16/11/14","07:00",0.0,11.4,95.7,1015.9,308.9,0.2,1.0,290.2,0.00,10.8,13.7,"06:59:52",1
"16/11/14","07:10",0.0,11.4,95.8,1016.1,320.3,1.6,2.0,318.9,0.00,10.8,13.7,"07:02:12",1
"16/11/14","07:20",0.0,11.5,96.0,1016.1,301.9,1.3,2.0,347.7,0.00,10.9,14.0,"07:12:24",1
"16/11/14","07:30",0.0,11.9,96.0,1016.4,269.7,1.0,1.6,244.8,0.00,11.3,13.7,"07:23:44",1
"16/11/14","07:40",0.0,12.4,94.9,1016.1,298.7,1.1,2.0,240.8,0.00,11.6,13.8,"07:30:48",1
"16/11/14","07:50",0.0,12.5,93.8,1016.4,312.5,1.1,1.9,344.8,0.00,11.6,13.9,"07:45:28",1
"16/11/14","08:00",0.0,12.6,93.1,1016.4,314.4,0.6,1.3,334.2,0.01,11.6,13.8,"07:52:24",1
"16/11/14","08:10",0.0,12.6,93.0,1016.4,270.1,0.8,1.3,303.1,0.02,11.5,13.8,"08:02:16",1
"16/11/14","08:20",0.0,12.9,93.4,1016.6,313.6,0.8,1.6,339.0,0.05,11.9,13.9,"08:13:12",1
"16/11/14","08:30",0.0,13.2,92.9,1016.8,312.0,0.7,1.2,325.7,0.04,12.1,14.1,"08:22:40",1
"16/11/14","08:40",0.0,13.3,92.0,1016.8,320.3,0.7,1.2,325.3,0.02,12.1,14.0,"08:30:32",1
"16/11/14","08:50",0.0,13.4,91.6,1016.8,292.4,0.7,1.3,335.8,0.02,12.1,14.0,"08:49:44",1
"16/11/14","09:00",0.0,13.4,91.4,1017.1,344.7,1.1,2.0,345.4,0.02,12.1,14.2,"08:55:52",1
"16/11/14","09:10",0.0,13.7,91.4,1016.8,319.1,1.0,1.9,334.5,0.05,12.4,14.1,"09:01:36",1
"16/11/14","09:20",0.0,14.0,90.6,1016.8,287.9,0.8,1.4,315.6,0.08,12.5,14.0,"09:16:32",1
"16/11/14","09:30",0.0,14.6,89.3,1016.1,285.9,0.8,1.4,330.5,0.09,12.9,14.3,"09:27:36",1
"16/11/14","09:40",0.0,15.0,88.2,1015.9,331.6,1.6,2.4,328.7,0.07,13.1,14.4,"09:37:52",1
"16/11/14","09:50",0.0,15.2,87.3,1014.9,266.5,1.2,1.8,243.2,0.08,13.1,14.4,"09:49:04",1
"16/11/14","10:00",0.0,15.9,82.7,1015.2,248.0,1.2,2.2,233.1,0.11,13.0,14.5,"09:54:24",1
"16/11/14","10:10",0.0,16.3,82.2,1016.1,222.2,1.1,2.8,210.2,0.12,13.3,14.7,"10:08:16",1
"16/11/14","10:20",0.0,16.0,80.6,1016.8,205.0,1.8,3.9,217.0,0.14,12.7,14.6,"10:10:24",1
"16/11/14","10:30",0.0,16.0,78.9,1016.6,193.0,1.2,2.6,217.1,0.07,12.4,14.7,"10:23:28",1
"16/11/14","10:40",0.0,15.7,80.5,1016.6,321.6,1.3,2.2,336.1,0.02,12.4,14.6,"10:36:00",1
"16/11/14","10:50",0.0,15.6,82.0,1016.4,286.7,0.7,1.4,318.4,0.02,12.6,14.6,"10:44:56",1
"16/11/14","11:00",0.0,15.4,84.6,1016.6,268.0,1.3,2.1,238.4,0.04,12.9,14.8,"10:52:24",1
"16/11/14","11:10",0.2,15.5,86.0,1016.4,307.5,1.1,1.6,305.2,0.06,13.2,14.9,"11:00:56",1
"16/11/14","11:20",0.2,15.4,87.7,1015.4,313.8,1.2,2.0,322.5,0.04,13.4,14.7,"11:12:08",1
"16/11/14","11:30",0.0,15.3,89.0,1015.4,278.0,0.8,1.3,248.2,0.04,13.5,14.8,"11:28:00",1
"16/11/14","11:40",0.0,15.4,89.9,1014.7,283.2,0.7,1.1,299.5,0.05,13.8,14.9,"11:35:04",1
"16/11/14","11:50",0.0,15.3,90.3,1014.9,282.1,0.8,1.2,272.7,0.02,13.8,14.9,"11:47:20",1
"16/11/14","12:00",0.0,15.4,91.3,1014.7,280.1,0.8,1.8,246.2,0.05,14.0,15.1,"11:57:04",1
"16/11/14","12:10",0.0,15.5,91.2,1014.2,293.3,0.8,1.1,278.6,0.05,14.1,14.9,"12:07:12",1
"16/11/14","12:20",0.0,15.7,91.0,1014.0,299.9,0.7,1.2,313.5,0.06,14.3,14.9,"12:11:36",1
"16/11/14","12:30",0.0,15.7,91.7,1014.2,301.5,1.0,1.6,323.5,0.02,14.4,15.0,"12:25:12",1
"16/11/14","12:40",0.0,15.5,91.4,1013.5,276.8,0.8,1.9,230.8,0.00,14.1,15.3,"12:34:56",1
"16/11/14","12:50",0.4,15.5,92.1,1014.0,309.9,1.0,1.8,343.0,0.01,14.3,15.0,"12:49:28",1
"16/11/14","13:00",0.2,15.5,92.7,1014.0,314.4,1.0,1.4,333.4,0.02,14.4,15.2,"12:50:16",1
"16/11/14","13:10",0.0,15.6,93.4,1013.8,304.2,1.0,1.3,249.0,0.03,14.6,15.2,"13:02:32",1
"16/11/14","13:20",0.2,15.6,93.5,1013.8,330.4,0.5,0.8,309.9,0.03,14.6,15.1,"13:10:08",1
"16/11/14","13:30",0.0,15.7,93.9,1013.5,306.9,0.6,1.1,319.6,0.03,14.8,15.3,"13:21:36",1
"16/11/14","13:40",0.0,15.9,93.8,1013.5,292.0,0.7,1.4,306.8,0.06,14.9,15.0,"13:38:40",1
"16/11/14","13:50",0.0,16.0,93.1,1013.5,315.8,1.1,1.4,334.7,0.09,14.9,15.2,"13:45:28",1
"16/11/14","14:00",0.0,16.2,93.0,1013.0,288.9,1.1,1.4,299.1,0.06,15.1,15.4,"13:50:24",1
"16/11/14","14:10",0.0,16.1,92.4,1013.5,300.3,1.2,1.7,307.1,0.03,14.9,15.3,"14:08:14",1
"16/11/14","14:20",0.0,16.0,92.5,1013.0,282.8,0.6,1.0,256.2,0.01,14.8,15.4,"14:16:48",1
"16/11/14","14:30",0.0,15.9,92.4,1012.8,289.4,0.5,1.2,315.6,0.00,14.7,15.4,"14:28:40",1
"16/11/14","14:40",0.0,16.0,92.9,1013.3,299.2,1.0,1.3,324.4,0.03,14.9,15.5,"14:32:40",1
"16/11/14","14:50",0.0,16.0,92.9,1013.0,305.6,1.3,1.6,310.7,0.03,14.9,15.3,"14:44:40",1
"16/11/14","15:00",0.0,15.9,92.6,1013.0,317.7,1.3,1.9,323.7,0.01,14.7,15.5,"14:51:36",1
"16/11/14","15:10",0.0,15.7,92.6,1013.0,310.9,1.3,1.9,313.8,0.01,14.5,15.4,"15:04:48",1
"16/11/14","15:20",0.0,15.6,93.0,1012.8,304.3,1.1,1.8,314.0,0.00,14.5,15.5,"15:10:16",1
"16/11/14","15:30",0.2,15.5,93.2,1012.3,302.1,1.2,2.2,319.2,0.01,14.4,15.3,"15:26:24",1
"16/11/14","15:40",0.0,15.5,93.4,1012.3,304.7,1.5,2.2,317.0,0.02,14.5,15.3,"15:39:52",1
"16/11/14","15:50",0.0,15.6,93.2,1011.4,291.6,1.3,1.8,250.6,0.03,14.5,15.6,"15:49:12",1
"16/11/14","16:00",0.0,16.0,93.6,1011.2,284.2,1.7,2.4,258.6,0.05,15.0,15.5,"15:57:12",1
"16/11/14","16:10",0.0,16.3,92.8,1011.4,284.1,1.6,2.1,255.8,0.07,15.2,15.8,"16:08:08",1
"16/11/14","16:20",0.0,16.3,91.9,1011.4,267.8,1.7,2.2,249.3,0.02,15.0,15.4,"16:10:56",1
"16/11/14","16:30",0.0,16.1,91.6,1011.2,294.3,1.5,2.1,308.0,0.00,14.8,15.6,"16:24:00",1
"16/11/14","16:40",0.0,16.0,91.4,1011.6,303.0,1.2,1.7,315.7,0.00,14.6,15.7,"16:31:12",1
"16/11/14","16:50",0.0,15.9,91.8,1011.6,306.0,1.1,1.8,284.5,0.00,14.6,15.6,"16:40:40",1
"16/11/14","17:00",0.0,15.7,92.3,1011.6,322.3,1.1,2.0,325.7,0.00,14.5,15.7,"16:59:12",1
"16/11/14","17:10",0.0,15.5,93.1,1011.9,325.2,1.7,2.1,336.0,0.00,14.4,15.3,"17:05:12",1
"16/11/14","17:20",0.0,15.4,93.6,1011.9,307.5,1.2,1.9,322.0,0.00,14.4,15.5,"17:13:04",1
"16/11/14","17:30",0.0,15.2,94.0,1011.4,306.7,1.0,1.3,285.9,0.00,14.3,15.5,"17:20:16",1
"16/11/14","17:40",0.0,15.1,94.5,1011.2,270.6,0.8,1.2,263.4,0.00,14.3,15.5,"17:32:48",1
"16/11/14","17:50",0.0,15.1,94.9,1011.4,308.6,1.1,1.8,317.3,0.00,14.3,15.5,"17:47:44",1
"16/11/14","18:00",0.0,15.1,95.1,1011.6,305.7,1.3,1.8,320.7,0.00,14.4,15.4,"17:51:36",1
"16/11/14","18:10",0.0,15.0,95.3,1011.6,301.3,1.1,1.7,303.5,0.00,14.3,15.6,"18:03:12",1
"16/11/14","18:20",0.0,15.0,95.4,1011.4,315.8,1.2,1.7,318.6,0.00,14.3,15.4,"18:18:32",1
"16/11/14","18:30",0.0,14.9,95.5,1011.2,313.1,1.2,1.9,333.1,0.00,14.2,15.4,"18:27:12",1
"16/11/14","18:40",0.0,14.8,95.7,1011.4,292.5,1.0,1.7,321.9,0.00,14.2,15.3,"18:37:36",1
"16/11/14","18:50",0.0,14.9,95.9,1011.2,321.6,1.2,1.7,335.1,0.00,14.3,15.3,"18:43:04",1
"16/11/14","19:00",0.0,14.9,96.0,1010.9,275.7,1.0,1.2,303.1,0.00,14.3,15.3,"18:54:16",1
"16/11/14","19:10",0.0,14.9,96.1,1011.2,284.4,0.8,1.6,301.4,0.00,14.3,15.2,"19:06:56",1
"16/11/14","19:20",0.2,14.8,96.2,1011.4,297.5,1.0,1.2,306.0,0.00,14.2,15.5,"19:13:52",1
"16/11/14","19:30",0.6,14.9,96.3,1011.2,315.4,1.2,2.0,355.6,0.00,14.4,15.3,"19:25:36",1
"16/11/14","19:40",0.2,14.8,96.3,1010.7,284.4,1.1,1.7,307.2,0.00,14.3,15.4,"19:39:04",1
"16/11/14","19:50",0.0,14.8,96.5,1011.2,299.4,1.3,2.0,318.8,0.00,14.3,15.2,"19:42:16",1
"16/11/14","20:00",0.0,14.8,96.5,1010.7,294.8,1.2,1.6,296.2,0.00,14.3,15.3,"19:58:16",1
"16/11/14","20:10",0.0,14.8,96.7,1010.7,297.3,1.2,1.6,305.3,0.00,14.3,15.3,"20:01:44",1
"16/11/14","20:20",0.0,14.8,96.8,1010.7,290.2,1.0,1.4,300.8,0.00,14.3,15.5,"20:19:36",1
"16/11/14","20:30",0.0,14.8,96.9,1010.9,291.1,1.2,1.8,298.3,0.00,14.4,15.1,"20:22:00",1
"16/11/14","20:40",0.0,14.8,96.9,1010.9,299.5,1.2,1.6,302.8,0.00,14.4,15.4,"20:31:12",1
"16/11/14","20:50",0.0,14.8,97.0,1010.7,301.1,1.0,1.6,314.3,0.00,14.4,15.4,"20:46:00",1
"16/11/14","21:00",0.0,14.8,97.1,1010.9,322.2,1.1,1.9,327.0,0.00,14.4,15.4,"20:57:52",1
"16/11/14","21:10",0.0,14.8,97.1,1010.9,296.3,1.2,1.6,308.1,0.00,14.4,15.2,"21:03:52",1
"16/11/14","21:20",0.4,14.8,97.2,1010.2,263.4,0.6,1.4,303.0,0.00,14.4,15.3,"21:11:20",1
"16/11/14","21:30",0.2,14.8,97.2,1010.4,299.3,1.5,2.2,315.6,0.00,14.4,15.3,"21:23:44",1
"16/11/14","21:40",0.4,14.8,97.2,1010.2,284.6,1.0,1.3,291.8,0.00,14.4,15.1,"21:35:20",1
"16/11/14","21:50",0.2,14.8,97.3,1010.4,298.0,1.1,1.7,308.8,0.00,14.4,15.0,"21:48:14",1
"16/11/14","22:00",0.2,14.8,97.4,1010.2,296.2,1.0,1.3,314.2,0.00,14.4,15.1,"21:50:08",1
"16/11/14","22:10",0.2,14.8,97.4,1009.7,294.1,1.0,1.3,306.6,0.00,14.4,15.2,"22:07:12",1
"16/11/14","22:20",0.2,14.8,97.4,1010.0,300.0,0.7,1.0,313.6,0.00,14.4,15.2,"22:10:34",1
"16/11/14","22:30",0.4,14.8,97.5,1009.7,307.2,1.1,1.6,318.5,0.00,14.4,15.3,"22:29:00",1
"16/11/14","22:40",1.0,14.8,97.6,1009.7,300.1,1.0,1.3,340.0,0.00,14.5,15.2,"22:30:24",1
"16/11/14","22:50",1.4,14.9,97.6,1009.7,290.7,0.7,1.0,315.9,0.00,14.6,15.2,"22:46:24",1
"16/11/14","23:00",0.8,14.9,97.7,1009.7,287.0,0.6,1.1,323.4,0.00,14.6,15.2,"22:52:24",1
"16/11/14","23:10",0.8,14.9,97.7,1009.5,310.0,0.6,0.8,323.1,0.00,14.6,15.2,"23:02:56",1
"16/11/14","23:20",1.2,14.9,97.8,1009.0,282.8,0.7,1.1,306.5,0.00,14.6,15.1,"23:16:48",1
"16/11/14","23:30",0.8,14.9,97.9,1008.6,252.2,1.0,1.8,240.3,0.00,14.6,15.3,"23:24:00",1
"16/11/14","23:40",0.8,14.9,97.9,1008.8,273.4,0.5,1.1,236.9,0.00,14.6,15.2,"23:35:20",1
"16/11/14","23:50",0.4,14.9,97.9,1008.6,290.2,0.7,1.1,340.1,0.00,14.6,15.2,"23:40:32",1
"16/11/14","24:00",0.2,14.9,97.9,1008.8,328.8,0.5,0.8,341.9,0.00,14.6,14.9,"23:55:28",1
